Modesto, Modesto City-County-Sham Field, United States
Lat: 37.62N, Lon: 120.95W
Local Info
Past Weather Observations for Yesterday

NOTE: This archive is for the closest National Weather Service station to Modesto, Modesto City-County-Sham Field. Information may differ from the station used for current weather conditions.

Click here for Long-term Archive

Time Weather Temperature Dewpoint Humidity Pressure Winds Precip Visibility
23:53
Clear
Fog And Mist
45°F / 7°C 43°F / 6°C 93% 30.36 in
(1028 mb)
Calm - 2 1/2SM
23:50
Clear
Fog And Mist
45°F / 7°C 43°F / 6°C 93% 30.36 in
(1028 mb)
Calm - 2 1/2SM
22:53
Clear
Fog And Mist
45°F / 7°C 43°F / 6°C 93% 30.36 in
(1028 mb)
ESE 3.5 mph
(ESE 6 kph)
- 3SM
22:44
Clear
Fog And Mist
45°F / 7°C 43°F / 6°C 93% 30.39 in
(1029 mb)
SE 3.5 mph
(SE 6 kph)
- 3SM
22:35
Clear
Fog And Mist
45°F / 7°C 43°F / 6°C 93% 30.39 in
(1029 mb)
SE 3.5 mph
(SE 6 kph)
- 2 1/2SM
22:25
Clear
Fog And Mist
45°F / 7°C 43°F / 6°C 93% 30.39 in
(1029 mb)
SE 3.5 mph
(SE 6 kph)
- 4SM
22:00
Clear
Fog And Mist
46°F / 8°C 45°F / 7°C 93% 30.39 in
(1029 mb)
Calm - 2 1/2SM
21:53
Clear
Fog And Mist
46°F / 8°C 45°F / 7°C 93% 30.39 in
(1029 mb)
Calm - 3SM
20:53
Clear
Fog And Mist
48°F / 9°C 45°F / 7°C 87% 30.39 in
(1029 mb)
Calm - 5SM
19:53
Clear
Hazy
52°F / 11°C 46°F / 8°C 82% 30.36 in
(1028 mb)
Calm - 6SM
18:53
Clear
52°F / 11°C 46°F / 8°C 82% 30.36 in
(1028 mb)
Calm - 7SM
17:53
Clear
55°F / 13°C 46°F / 8°C 72% 30.36 in
(1028 mb)
Calm - 8SM
16:53
Clear
63°F / 17°C 46°F / 8°C 56% 30.36 in
(1028 mb)
N 3.5 mph
(N 6 kph)
- 8SM
15:53
Clear
64°F / 18°C 46°F / 8°C 52% 30.39 in
(1029 mb)
Calm - 7SM
14:53
Clear
64°F / 18°C 45°F / 7°C 49% 30.39 in
(1029 mb)
W 3.5 mph
(W 6 kph)
- 7SM
13:53
Clear
64°F / 18°C 45°F / 7°C 49% 30.39 in
(1029 mb)
Calm - 7SM
12:53
Clear
63°F / 17°C 45°F / 7°C 52% 30.42 in
(1030 mb)
Calm - 7SM
11:53
Clear
63°F / 17°C 46°F / 8°C 56% 30.45 in
(1031 mb)
Calm - 7SM
10:53
Clear
59°F / 15°C 46°F / 8°C 63% 30.48 in
(1032 mb)
Calm - 7SM
09:53
Clear
Hazy
54°F / 12°C 46°F / 8°C 77% 30.51 in
(1033 mb)
E 3.5 mph
(E 6 kph)
- 5SM
08:53
Clear
Fog And Mist
48°F / 9°C 46°F / 8°C 94% 30.51 in
(1033 mb)
Variable 3.5 mph
(Variable 6 kph)
- 5SM
07:53
Clear
Fog And Mist
45°F / 7°C 41°F / 5°C 87% 30.48 in
(1032 mb)
ESE 3.5 mph
(ESE 6 kph)
- 4SM
06:53
Clear
Fog And Mist
41°F / 5°C 39°F / 4°C 93% 30.45 in
(1031 mb)
ESE 3.5 mph
(ESE 6 kph)
- 4SM
05:53
Clear
Fog And Mist
43°F / 6°C 39°F / 4°C 87% 30.45 in
(1031 mb)
Calm - 3SM
05:10
Clear
Fog And Mist
41°F / 5°C 39°F / 4°C 93% 30.42 in
(1030 mb)
SE 4.6 mph
(SE 7 kph)
- 3SM
04:53
Clear
Fog And Mist
41°F / 5°C 39°F / 4°C 93% 30.42 in
(1030 mb)
SE 6.9 mph
(SE 11 kph)
- 2 1/2SM
04:40
Clear
Fog And Mist
41°F / 5°C 39°F / 4°C 93% 30.42 in
(1030 mb)
ESE 3.5 mph
(ESE 6 kph)
- 2 1/2SM
03:53
Clear
Fog And Mist
43°F / 6°C 39°F / 4°C 87% 30.42 in
(1030 mb)
Calm - 3SM
02:53
Clear
Fog And Mist
43°F / 6°C 39°F / 4°C 87% 30.45 in
(1031 mb)
Calm - 3SM
01:53
Clear
Fog And Mist
43°F / 6°C 39°F / 4°C 87% 30.45 in
(1031 mb)
ESE 4.6 mph
(ESE 7 kph)
- 4SM
00:53
Clear
Fog And Mist
43°F / 6°C 39°F / 4°C 87% 30.45 in
(1031 mb)
SE 5.8 mph
(SE 9 kph)
- 6SM
Time Weather Temperature Dewpoint Humidity Pressure Winds Precip Visibility


Weather for websites

WeatherForYou.com, LLC is not responsible for any damages or problems caused by this service. Current weather conditions are obtained from the closest station including government and personal stations which may have varying degrees of accuracy. Weather forecasts are derived from the NOAA NDFD. Like all things, this site belongs to Jesus Christ... He just trusts me to maintain it. If you have any questions or comments email webmaster@weatherforyou.com

Copyright © 2014, WeatherForYou.com LLC. All rights reserved.